#timestamp,LO_Frequency,Hit,StdDev 
1623423615.2,286047004.3,N
1623423635.0,286047004.3,N
1623423635.9,286047004.3,N
1623423655.8,286047003.6,N
1623423675.6,286047005.6,N
1623423695.4,286047004.1,N
1623423715.3,286047003.6,N
1623423735.1,286047004.8,N
1623423755.9,286047004.5,N
1623423775.7,286047006.8,N
1623423795.5,286047006.6,N
1623423815.4,286047006.6,N
1623423835.2,286047006.1,N
1623423855.0,286047005.6,N
1623423855.9,286047005.6,N
1623423875.8,286047004.9,N
1623423895.6,286047003.1,N
1623423915.5,286047005.8,N
1623423935.3,286047005.0,N
1623423955.1,286047004.8,N
1623423975.9,286047007.0,Y
1623423995.7,286047001.8,P
1623424015.5,286047004.3,P
1623424035.4,286047004.4,P
1623424055.2,286047004.2,Y
1623424075.1,286047002.8,P
1623424076.0,286047002.8,P
1623424095.8,286047001.4,P
1623424115.6,286047001.4,N
1623424135.5,286047003.9,Y
1623424155.3,286047002.2,P
1623424175.2,286047005.6,P
1623424195.9,286047007.1,P
1623424215.7,286047006.1,N
1623424235.6,286047007.1,Y
1623424255.4,286047001.4,P
1623424275.3,286047004.2,N
1623424295.1,286047003.6,N
1623424296.0,286047003.6,N
1623424315.8,286047003.8,Y
1623424335.7,286047001.8,P
1623424355.5,286047005.7,P
1623424375.3,286047005.5,P
1623424395.2,286047005.9,Y
1623424415.0,286046999.4,P
1623424415.9,286046999.4,N
1623424435.8,286046998.3,N
1623424455.6,286046998.6,N
1623424475.4,286047000.0,N
1623424495.3,286047003.7,N
1623424515.1,286047006.0,N
1623424535.9,286047005.7,N
1623424555.7,286047006.8,N
1623424575.5,286047006.7,N
1623424595.4,286047007.4,N
1623424615.2,286047006.8,N
1623424635.0,286047007.3,N
1623424635.9,286047007.3,N
1623424655.8,286047009.2,N
1623424675.6,286047006.6,N
1623424695.5,286047009.0,N
1623424715.3,286047010.6,N
1623424735.1,286047009.5,N
1623424755.9,286047012.4,Y
1623424775.7,286047008.6,P
1623424795.6,286047006.4,P
1623424815.4,286047006.9,P
1623424835.2,286047004.2,Y
1623424855.1,286046998.3,P
1623424856.0,286046998.3,N
1623424875.8,286047000.1,N
1623424895.6,286047001.9,N
1623424915.5,286047003.9,N
1623424935.3,286047003.1,N
1623424955.2,286047003.2,N
1623424975.9,286047005.6,N
1623424995.7,286047006.0,N
1623425015.6,286047005.0,N
1623425035.4,286047007.4,N
1623425055.3,286047006.6,N
1623425075.1,286047009.0,N
1623425076.0,286047009.0,N
1623425095.9,286047008.3,N
1623425115.7,286047008.1,N
1623425135.5,286047008.9,N
1623425155.4,286047007.9,N
1623425175.2,286047008.1,N
1623425195.0,286047006.1,N
1623425195.9,286047006.1,N
1623425215.8,286047010.1,Y
1623425235.6,286047006.0,P
1623425255.5,286047003.4,P
1623425275.3,286047005.3,P
1623425295.1,286047005.9,Y
1623425315.9,286046999.1,P
1623425335.7,286046998.2,N
1623425355.6,286047000.4,N
1623425375.4,286046999.9,N
1623425395.2,286046999.7,N
1623425415.1,286047002.8,N
1623425416.0,286047002.8,N
1623425435.8,286047002.5,N
1623425455.7,286047001.4,N
1623425475.5,286047002.8,N
1623425495.3,286047001.7,N
1623425515.2,286047003.0,N
1623425535.9,286047006.7,Y
1623425555.7,286047005.8,P
1623425575.6,286047003.0,N
1623425595.4,286047003.7,N
1623425615.3,286047003.2,N
1623425635.1,286047005.4,Y
1623425655.8,286047001.6,P
1623425675.7,286047000.5,N
1623425695.5,286046999.1,N
1623425715.4,286046995.1,Y
1623425735.2,286046998.0,P
1623425755.0,286046995.3,N
1623425755.9,286046995.3,N
1623425775.8,286046997.5,N
1623425795.6,286046997.3,N
1623425815.5,286046999.5,N
1623425835.3,286046997.0,N
1623425855.1,286046997.4,N
1623425875.9,286046997.0,N
1623425895.7,286047000.8,N
1623425915.6,286046998.3,N
1623425935.4,286046996.5,N
1623425955.2,286047000.7,N
1623425975.1,286047000.4,N
1623425976.0,286047000.4,N
1623425995.8,286047002.2,N
1623426015.6,286047002.7,N
1623426035.5,286047002.1,N
1623426055.3,286047001.4,N
1623426075.2,286047003.0,N
1623426095.9,286047005.4,N
1623426115.7,286047007.5,N
1623426135.6,286047009.1,N
1623426155.4,286047010.7,Y
1623426175.3,286047011.9,P
1623426195.1,286047009.9,N
1623426196.0,286047009.9,N
1623426215.8,286047008.0,N
1623426235.7,286047009.0,N
1623426255.5,286047006.7,N
1623426275.3,286047008.2,N
1623426295.2,286047007.7,N
1623426315.0,286047008.2,N
1623426315.9,286047008.2,N
1623426335.8,286047012.0,Y
1623426355.6,286047003.7,P
1623426375.4,286047005.5,N
1623426395.3,286047004.9,N
1623426415.1,286047006.3,Y
1623426435.9,286047002.1,P
1623426455.7,286047002.5,N
1623426475.5,286047004.4,N
1623426495.4,286047003.8,N
1623426515.2,286047006.0,Y
1623426535.1,286047001.0,P
1623426536.0,286047001.0,N
1623426555.8,286047001.2,N
1623426575.6,286046997.2,N
1623426595.5,286046997.1,N
1623426615.3,286046999.2,N
1623426635.1,286047000.7,N
1623426655.9,286047000.3,N
1623426675.7,286047002.8,N
1623426695.6,286047000.6,N
1623426715.4,286047002.3,N
1623426735.2,286047001.0,N
1623426755.1,286047000.1,N
1623426756.0,286047000.1,N
1623426775.8,286046999.8,N
1623426795.7,286047002.2,N
1623426815.5,286047004.4,N
1623426835.3,286047004.0,N
1623426855.2,286047003.3,N
1623426875.0,286047003.1,N
1623426875.9,286047003.1,N
1623426895.7,286047005.9,Y
1623426915.6,286047001.3,P
1623426935.4,286047002.3,P
1623426955.3,286047004.2,P
1623426975.1,286047003.6,Y
1623426995.8,286047001.7,P
1623427015.7,286047000.6,N
1623427035.5,286046998.6,N
1623427055.4,286047000.8,N
1623427075.2,286047000.1,N
1623427095.0,286047001.0,N
1623427095.9,286047001.0,N
1623427115.8,286046998.1,N
1623427135.6,286047000.8,N
1623427155.4,286047001.9,N
1623427175.3,286047001.8,N
1623427195.1,286047001.4,N
